Regional Weather Roundup
Issued by NWS Sioux Falls, SD

Home | Current Version | Previous Version | Graphics & Text | Print | Product List | Glossary On
Versions: 1 2 3 4 5 6 7 8 9 10 11 12 13 14 15 16 17 18 19 20 21 22 23 24 25 26 27 28 29 30 31 32 33 34 35 36 37 38 39 40 41 42 43 44 45 46 47 48 49 50
000
ASUS43 KFSD 022302
RWRFSD

WEATHER ROUNDUP FOR SE SOUTH DAKOTA/SW MINNESOTA/NW IOWA
NATIONAL WEATHER SERVICE SIOUX FALLS SD
600 PM CDT THU JUL 02 2015

NOTE: "FAIR" INDICATES FEW OR NO CLOUDS BELOW 12,000 FEET WITH NO
SIGNIFICANT WEATHER AND OR OBSTRUCTIONS TO VISIBILITY.


SDZ038>040-050-052>070-030000-
SOUTHEAST SOUTH DAKOTA

CITY           SKY/WX    TMP DP  RH WIND       PRES   REMARKS
BROOKINGS      CLOUDY    72  50  46 S7        30.01S
CHAMBERLAIN    MOSUNNY   73  64  72 NE7       29.97S
HURON          MOSUNNY   72  62  71 S8        29.97S
MADISON        FAIR      68  54  60 S8        30.00F
MITCHELL       CLOUDY    68  59  73 E8        29.99S
SIOUX FALLS    CLOUDY    69  57  65 SE3       29.99F
WINNER         FAIR      80  58  46 N12       29.97F
YANKTON        PTSUNNY   68  61  77 E6        29.97S
$$

MNZ071-072-080-081-089-090-097-098-030000-
SOUTHWEST MINNESOTA

CITY           SKY/WX    TMP DP  RH WIND       PRES   REMARKS
FAIRMONT       MOSUNNY   73  43  33 S7        29.99F
JACKSON        MOSUNNY   73  46  38 SE6       30.01S
LUVERNE        CLOUDY    72  55  56 E7        30.00F
MARSHALL       PTSUNNY   72  46  40 SE6       29.98F
MONTEVIDEO     MOSUNNY   75  52  43 S3        30.00S
PIPESTONE      CLOUDY    70  50  49 S6        30.01S
REDWOOD FALLS  PTSUNNY   74  49  41 SE7       29.99S
TRACY          PTSUNNY   73  54  50 E5        30.00F
WINDOM         PTSUNNY   73  39  29 CALM      30.00S
WORTHINGTON    PTSUNNY   68  46  45 E6        30.01S
$$

IAZ001>003-012>014-020>022-031-032-NEZ013-014-SDZ071-030000-
NORTHWEST IOWA

CITY           SKY/WX    TMP DP  RH WIND       PRES   REMARKS
DENISON        LGT RAIN  66  63  88 E9        29.97S
ESTHERVILLE    MOSUNNY   69  53  56 S5        30.00S
SIOUX CITY     CLOUDY    67  60  78 E9        29.98S
SPENCER        CLOUDY    70  48  45 SE6       30.00F
$$

ABBREVIATIONS USED IN REMARKS
   TC - TEMPERATURE IN CELSIUS
  WCI - WIND CHILL INDEX
   HX - HEAT INDEX
  VSB - VISIBILITY



USA.gov is the U.S. government's official web portal to all federal, state and local government web resources and services.